TimeCEST,TemperatureF,Dew PointF,Humidity,Sea Level PressureIn,VisibilityMPH,Wind Direction,Wind SpeedMPH,Gust SpeedMPH,PrecipitationIn,Events,Conditions,WindDirDegrees,DateUTC
12:45 AM,50.0,48.2,94,29.83,-9999.0,SSE,3.5,-,N/A,,Clear,150,2013-10-15 22:45:00
1:45 AM,50.0,48.2,94,29.80,-9999.0,SE,5.8,-,N/A,,Clear,130,2013-10-15 23:45:00
2:00 AM,50,48,90,29.81,6,SE,4.5,,,,Partly Cloudy,130,2013-10-16 00:00:00
2:45 AM,50.0,48.2,94,29.80,-9999.0,South,5.8,-,N/A,,Clear,180,2013-10-16 00:45:00
3:45 AM,51.8,50.0,94,29.77,-9999.0,South,5.8,-,N/A,,Clear,170,2013-10-16 01:45:00
4:45 AM,51.8,50.0,94,29.74,5.0,South,4.6,-,N/A,,Overcast,170,2013-10-16 02:45:00
5:45 AM,53.6,51.8,94,29.71,5.0,SE,4.6,-,N/A,,Overcast,140,2013-10-16 03:45:00
5:56 AM,53.6,51.8,94,29.71,5.0,SE,4.6,-,N/A,Rain,Light Rain,140,2013-10-16 03:56:00
6:15 AM,53.6,51.8,94,29.71,5.0,SSE,4.6,-,N/A,Rain,Light Rain,160,2013-10-16 04:15:00
6:45 AM,53.6,51.8,94,29.71,3.1,SSE,6.9,-,N/A,Rain,Light Rain,160,2013-10-16 04:45:00
7:15 AM,53.6,51.8,94,29.71,3.1,SSW,6.9,-,N/A,Rain,Light Rain,200,2013-10-16 05:15:00
7:45 AM,53.6,53.6,100,29.68,2.8,South,3.5,-,N/A,Rain,Rain,190,2013-10-16 05:45:00
8:00 AM,54,53,94,29.70,3,South,4.5,,,Rain,Rain,190,2013-10-16 06:00:00
8:15 AM,53.6,53.6,100,29.68,2.5,SSE,5.8,-,N/A,Rain,Rain,160,2013-10-16 06:15:00
8:45 AM,55.4,53.6,94,29.68,2.8,SSE,5.8,-,N/A,Rain,Light Rain,150,2013-10-16 06:45:00
9:15 AM,55.4,53.6,94,29.68,3.7,SSE,4.6,-,N/A,Rain,Light Rain,160,2013-10-16 07:15:00
9:45 AM,55.4,53.6,94,29.68,3.7,SSE,5.8,-,N/A,Rain,Light Rain,160,2013-10-16 07:45:00
10:15 AM,55.4,55.4,100,29.65,3.7,SSE,5.8,-,N/A,Rain,Light Rain,150,2013-10-16 08:15:00
10:45 AM,55.4,55.4,100,29.65,1.9,SSW,4.6,-,N/A,Rain,Rain Showers,200,2013-10-16 08:45:00
11:15 AM,55.4,55.4,100,29.65,2.8,SW,6.9,-,N/A,Rain,Light Rain Showers,220,2013-10-16 09:15:00
11:45 AM,55.4,53.6,94,29.65,3.1,West,8.1,-,N/A,Rain,Rain Showers,260,2013-10-16 09:45:00
12:15 PM,53.6,51.8,94,29.65,4.3,WNW,13.8,-,N/A,Rain,Rain,300,2013-10-16 10:15:00
12:45 PM,51.8,50.0,94,29.65,5.0,WNW,16.1,-,N/A,Rain,Light Rain,300,2013-10-16 10:45:00
12:57 PM,51.8,48.2,88,29.65,6.2,WNW,18.4,-,N/A,Rain,Light Rain,300,2013-10-16 10:57:00
1:15 PM,50.0,48.2,94,29.65,6.2,WNW,19.6,-,N/A,Rain,Light Rain,300,2013-10-16 11:15:00
1:45 PM,50.0,46.4,87,29.65,6.2,NW,18.4,-,N/A,Rain,Light Rain,310,2013-10-16 11:45:00
2:00 PM,50,47,85,29.66,6,NW,17.9,,,Rain,Light Rain,310,2013-10-16 12:00:00
2:15 PM,50.0,46.4,87,29.65,6.2,NW,17.3,-,N/A,Rain,Rain,310,2013-10-16 12:15:00
2:45 PM,50.0,46.4,87,29.65,6.2,NW,17.3,-,N/A,Rain,Light Rain,310,2013-10-16 12:45:00
3:15 PM,50.0,46.4,87,29.65,6.2,WNW,16.1,-,N/A,Rain,Light Rain,300,2013-10-16 13:15:00
3:45 PM,51.8,46.4,82,29.65,6.2,WNW,15.0,-,N/A,,Overcast,300,2013-10-16 13:45:00
4:07 PM,51.8,46.4,82,29.65,-9999.0,WNW,16.1,27.6,N/A,,Unknown,300,2013-10-16 14:07:00
4:08 PM,51.8,46.4,82,29.65,6.2,WNW,17.3,29.9,N/A,,Overcast,300,2013-10-16 14:08:00
4:15 PM,51.8,46.4,82,29.65,6.2,WNW,19.6,-,N/A,,Overcast,300,2013-10-16 14:15:00
4:45 PM,51.8,46.4,82,29.62,6.2,WNW,19.6,33.4,N/A,,Mostly Cloudy,290,2013-10-16 14:45:00
5:15 PM,51.8,46.4,82,29.62,6.2,WNW,19.6,-,N/A,,Mostly Cloudy,290,2013-10-16 15:15:00
5:45 PM,50.0,44.6,82,29.62,6.2,WNW,21.9,-,N/A,,Mostly Cloudy,290,2013-10-16 15:45:00
6:15 PM,50.0,44.6,82,29.62,6.2,WNW,19.6,-,N/A,,Mostly Cloudy,290,2013-10-16 16:15:00
6:45 PM,50.0,44.6,82,29.65,6.2,West,17.3,-,N/A,Rain,Light Rain,280,2013-10-16 16:45:00
7:15 PM,50.0,44.6,82,29.65,6.2,West,17.3,-,N/A,Rain,Light Rain,280,2013-10-16 17:15:00
7:45 PM,48.2,44.6,87,29.65,6.2,West,17.3,-,N/A,Rain,Light Rain,270,2013-10-16 17:45:00
8:00 PM,49,45,83,29.64,12,West,17.9,,,Rain,Light Rain,270,2013-10-16 18:00:00
8:15 PM,48.2,46.4,93,29.62,6.2,West,12.7,-,N/A,Rain,Light Rain,270,2013-10-16 18:15:00
8:45 PM,48.2,46.4,93,29.62,6.2,West,9.2,-,N/A,Rain,Light Rain,260,2013-10-16 18:45:00
9:15 PM,48.2,46.4,93,29.62,6.2,West,8.1,-,N/A,Rain,Light Rain,270,2013-10-16 19:15:00
9:45 PM,48.2,46.4,93,29.62,6.2,West,5.8,-,N/A,Rain,Light Rain,280,2013-10-16 19:45:00
10:45 PM,48.2,46.4,93,29.62,6.2,NNW,5.8,-,N/A,Rain,Light Rain,330,2013-10-16 20:45:00
11:45 PM,50.0,48.2,94,29.65,6.2,North,8.1,-,N/A,Rain,Light Rain,350,2013-10-16 21:45:00